Weather reports worldwide

Advertisment
Landivisiau, France (7106): temperature & dewpoint: 14.06.2018 11:00:00 - 20.06.2018 11:00:00 (CEST)Landivisiau, France (7106): temperature 5cm: 14.06.2018 11:00:00 - 20.06.2018 11:00:00 (CEST)Landivisiau, France (7106): temperature -20cm: 14.06.2018 11:00:00 - 20.06.2018 11:00:00 (CEST)Landivisiau, France (7106): wind speed & gusts: 14.06.2018 11:00:00 - 20.06.2018 11:00:00 (CEST)Landivisiau, France (7106): wind direction: 14.06.2018 11:00:00 - 20.06.2018 11:00:00 (CEST)Landivisiau, France (7106): reduced air pressure: 14.06.2018 11:00:00 - 20.06.2018 11:00:00 (CEST)Landivisiau, France (7106): visibility: 14.06.2018 11:00:00 - 20.06.2018 11:00:00 (CEST)Landivisiau, France (7106): precipitation: 14.06.2018 11:00:00 - 20.06.2018 11:00:00 (CEST)
Date & Time tt [°C] td [°C] tt 5cm [°C] tt -20cm [°C] ff [km/h] ff [kn] fx [km/h] fx [kn] dd ppp [hPa] vv [km] rr [mm]
20.06.2018 11:00:00 17,0 16,8 20,3 17,1 4 2 11 6 NNE 1023,1 2,9 0,0
20.06.2018 10:00:00 16,3 16,1 17,4 17,1 4 2 9 5 NW 1023,2 0,4 0,0
20.06.2018 09:00:00 15,2 15,0 15,7 17,1 3 2 8 4 SSW 1023,2 0,2 0,0
20.06.2018 08:00:00 14,9 14,7 14,9 17,2 0 0 5 3 N 1023,0 0,2 0,0
20.06.2018 07:00:00 14,6 14,4 14,7 17,2 5 3 9 5 SSE 1023,0 0,1 0,0
20.06.2018 06:00:00 14,8 14,6 14,7 17,3 6 3 11 6 SSE 1022,8 0,1 0,0
20.06.2018 05:00:00 14,7 14,5 14,6 17,3 6 4 9 5 E 1023,2 0,2 0,0
20.06.2018 04:00:00 14,6 14,4 14,5 17,4 8 4 15 8 E 1023,4 0,2 0,0
20.06.2018 03:00:00 14,5 14,2 14,6 17,4 8 4 16 9 E 1023,7 0,5 0,0
20.06.2018 02:00:00 14,7 14,4 14,6 17,5 10 6 18 10 E 1024,1 3,6 0,0
20.06.2018 01:00:00 14,8 14,3 15,0 17,5 5 3 13 7 NE 1024,6 2,0 0,0
20.06.2018 00:00:00 15,1 14,3 15,4 17,5 7 4 15 8 NE 1024,9 8 0,0
19.06.2018 23:00:00 15,5 14,5 15,7 17,5 9 5 16 9 NNE 1024,8 12 0,0
19.06.2018 22:00:00 16,3 15,0 16,7 17,5 9 5 13 7 N 1024,4 19 0,0
19.06.2018 21:00:00 16,8 15,0 18,2 17,4 10 5 16 9 N 1024,5 19 0,0
19.06.2018 20:00:00 18,4 15,5 25,6 17,2 12 6 18 10 N 1024,6 20 0,0
19.06.2018 19:00:00 19,7 16,3 24,4 17,1 9 5 18 10 N 1024,7 20 0,0
19.06.2018 18:00:00 20,4 17,0 30,4 16,9 13 7 21 11 N 1025,2 20 0,0
19.06.2018 17:00:00 20,1 16,5 24,0 16,8 10 6 21 11 NNW 1025,6 19 0,0
19.06.2018 16:00:00 21,1 14,7 24,0 16,6 6 3 16 9 W 1025,7 20 0,0
19.06.2018 15:00:00 20,7 14,6 23,7 16,5 8 4 13 7 WSW 1026,0 45 0,0
19.06.2018 14:00:00 19,3 15,8 - - 4 2 11 6 S 1026,3 18 -
19.06.2018 13:00:00 18,7 15,4 20,2 16,4 5 3 13 7 WSW 1026,6 14 0,0
19.06.2018 12:00:00 17,8 15,1 18,8 16,4 4 2 11 6 WNW 1026,8 20 0,0
19.06.2018 11:00:00 17,3 15,1 18,1 16,4 5 3 11 6 WNW 1026,8 34 0,0
19.06.2018 10:00:00 16,7 15,2 17,0 16,4 6 3 9 5 WNW 1026,9 20 0,0
19.06.2018 09:00:00 16,1 15,6 16,0 16,4 5 3 15 8 - 1026,8 10 0,0
19.06.2018 08:00:00 15,6 15,3 15,5 16,4 3 2 8 4 SW 1026,8 12 0,0
19.06.2018 07:00:00 15,4 15,1 15,2 16,4 5 3 8 4 SW 1026,5 10 0,0
19.06.2018 06:00:00 15,3 15,0 15,1 16,4 4 2 11 6 W 1026,3 14 0,0
19.06.2018 05:00:00 15,3 15,1 15,2 16,5 7 4 15 8 W 1026,3 6 0,0
19.06.2018 04:00:00 15,3 15,1 15,0 16,5 9 5 15 8 W 1026,3 4,0 0,0
19.06.2018 03:00:00 15,1 14,9 15,0 16,5 10 5 18 10 WSW 1026,5 3,4 0,0
19.06.2018 02:00:00 15,1 14,8 15,0 16,6 11 6 18 10 WSW 1026,6 3,0 0,0
19.06.2018 01:00:00 15,1 14,8 14,8 16,6 11 6 15 8 WSW 1026,8 4,0 0,0
19.06.2018 00:00:00 14,9 14,6 14,8 16,6 12 6 22 12 WSW 1027,0 3,7 0,2
18.06.2018 23:00:00 15,3 15,0 15,3 16,6 12 7 16 9 WSW 1027,0 1,6 0,0
18.06.2018 22:00:00 15,4 14,9 15,4 16,6 11 6 21 11 SW 1026,5 1,5 0,0
18.06.2018 21:00:00 15,8 15,0 15,8 16,6 16 8 26 14 SW 1026,0 1,6 0,0
18.06.2018 20:00:00 16,6 14,8 17,5 16,5 18 10 31 17 SW 1025,9 32 0,0
18.06.2018 19:00:00 17,4 14,7 18,8 16,4 23 12 31 17 SW 1025,7 42 0,0
18.06.2018 18:00:00 18,4 14,9 20,1 16,3 21 11 29 16 SW 1025,5 38 0,0
18.06.2018 17:00:00 17,6 14,9 18,9 16,2 21 11 29 16 SW 1025,8 20 0,0
18.06.2018 16:00:00 18,1 15,0 19,4 16,1 21 11 26 14 WSW 1025,4 39 0,0
18.06.2018 15:00:00 19,2 14,9 22,0 15,9 13 7 24 13 WSW 1025,2 10 0,0
18.06.2018 14:00:00 18,9 14,8 19,6 15,8 16 9 26 14 W 1025,2 20 0,0
18.06.2018 13:00:00 17,0 13,9 18,9 15,8 13 7 26 14 W 1025,5 43 0,0
18.06.2018 12:00:00 16,4 14,1 15,8 15,8 17 9 29 16 NW 1025,2 36 0,0
18.06.2018 11:00:00 15,4 12,7 14,8 15,8 15 8 31 17 NW 1025,0 19 0,0
18.06.2018 10:00:00 15,1 12,4 14,3 15,8 17 9 29 16 WNW 1024,7 31 0,0
18.06.2018 09:00:00 14,1 13,5 13,7 15,8 13 7 31 17 WNW 1024,0 9 0,0
18.06.2018 08:00:00 13,9 13,4 13,6 15,8 21 11 31 17 W 1023,4 4,4 0,0
18.06.2018 07:00:00 13,8 13,2 13,5 15,9 13 7 22 12 W 1023,0 9 0,0
18.06.2018 06:00:00 13,7 13,1 13,4 15,9 10 5 22 12 W 1022,7 9 0,0
18.06.2018 05:00:00 13,8 13,0 13,4 15,9 15 8 24 13 W 1022,4 4,6 0,0
18.06.2018 04:00:00 13,8 13,2 13,5 16,0 13 7 28 15 W 1022,4 7 0,0
18.06.2018 03:00:00 14,0 13,5 13,6 16,0 16 8 34 18 W 1022,4 11 0,0
18.06.2018 02:00:00 14,7 14,4 14,6 16,0 13 7 24 13 W 1021,9 2,5 0,6
18.06.2018 01:00:00 14,8 14,3 14,6 16,0 11 6 16 9 WSW 1021,8 4,7 0,0
18.06.2018 00:00:00 14,9 14,4 14,7 16,0 14 8 18 10 WSW 1021,9 5 0,0
17.06.2018 23:00:00 15,0 14,7 14,8 16,0 14 8 28 15 W 1021,6 4,5 0,0
17.06.2018 22:00:00 15,1 14,8 15,0 16,0 19 10 31 17 W 1021,2 1,9 0,2
17.06.2018 21:00:00 15,5 15,0 15,4 15,9 18 10 28 15 W 1020,8 2,4 0,0
17.06.2018 20:00:00 15,7 15,2 15,7 15,9 19 10 29 16 WSW 1020,5 8 0,4
17.06.2018 19:00:00 15,8 15,3 15,8 15,9 17 9 31 17 WSW 1020,2 2,4 0,2
17.06.2018 18:00:00 15,7 15,2 15,7 15,8 24 13 39 21 WSW 1020,2 3,1 0,0
17.06.2018 17:00:00 15,6 15,1 15,8 15,7 28 15 44 24 WSW 1020,3 1,7 0,0
17.06.2018 16:00:00 15,5 14,7 15,6 15,7 24 13 42 23 SW 1020,0 2,6 0,2
17.06.2018 15:00:00 15,4 14,3 15,3 15,6 29 16 46 25 SW 1020,1 4,8 0,0
17.06.2018 14:00:00 14,8 13,7 14,9 15,6 29 16 46 25 SW 1020,4 4,3 0,2
17.06.2018 13:00:00 14,7 13,2 14,6 15,6 27 15 42 23 SW 1020,5 4,2 0,0
17.06.2018 12:00:00 14,8 11,4 15,6 15,6 28 15 46 25 SW 1020,5 11 0,0
17.06.2018 11:00:00 15,3 10,5 16,8 15,6 31 17 46 25 SW 1020,5 18 0,0
17.06.2018 10:00:00 15,0 10,0 15,3 15,6 27 14 44 24 SW 1020,6 20 0,0
17.06.2018 09:00:00 14,4 9,6 13,7 15,6 21 11 34 18 SW 1020,3 30 0,0
17.06.2018 08:00:00 13,4 9,3 12,9 15,7 17 9 26 14 WSW 1020,1 47 0,0
17.06.2018 07:00:00 13,0 9,6 12,6 15,7 16 8 24 13 WSW 1020,3 44 0,0
17.06.2018 06:00:00 12,9 10,4 12,5 15,8 15 8 22 12 WSW 1019,9 19 0,0
17.06.2018 05:00:00 12,8 10,2 12,4 15,9 12 6 18 10 SW 1020,0 43 0,0
17.06.2018 04:00:00 13,1 9,3 12,7 15,9 11 6 18 10 WSW 1020,3 49 0,0
17.06.2018 03:00:00 13,1 10,1 12,7 16,0 11 6 18 10 WSW 1020,6 42 0,0
17.06.2018 02:00:00 13,1 9,3 12,7 16,0 10 6 18 10 WSW 1020,4 48 0,0
17.06.2018 01:00:00 13,2 9,4 12,8 16,1 10 6 16 9 WSW 1020,6 43 0,0
17.06.2018 00:00:00 13,4 10,2 13,0 16,1 13 7 18 10 W 1020,8 35 0,0
16.06.2018 23:00:00 13,6 10,0 13,3 16,2 13 7 22 12 W 1020,2 40 0,0
16.06.2018 22:00:00 14,0 9,2 13,7 16,2 9 5 21 11 W 1020,0 59 0,0
16.06.2018 21:00:00 14,3 8,7 14,1 16,2 15 8 34 18 W 1019,8 32 0,0
16.06.2018 20:00:00 15,0 8,5 15,4 16,1 18 10 29 16 WNW 1019,4 37 0,0
16.06.2018 19:00:00 15,3 9,9 15,7 16,1 19 10 34 18 WNW 1019,1 43 0,0
16.06.2018 18:00:00 17,0 9,7 15,4 16,0 23 13 35 19 WNW 1018,6 20 0,0
16.06.2018 17:00:00 15,7 10,9 15,0 16,0 20 11 29 16 WNW 1018,7 19 0,0
16.06.2018 16:00:00 15,6 12,9 13,6 16,0 16 9 37 20 W 1018,1 12 0,6
16.06.2018 15:00:00 15,0 14,0 14,2 16,0 18 10 34 18 W 1017,9 3,1 0,4
16.06.2018 14:00:00 14,5 13,7 14,7 16,0 22 12 35 19 SW 1017,7 4,6 0,2
16.06.2018 13:00:00 14,1 13,3 14,4 16,0 24 13 39 21 SW 1017,9 4,6 0,4
16.06.2018 12:00:00 14,1 12,8 14,1 16,0 29 15 41 22 SW 1017,5 3,8 0,0
16.06.2018 11:00:00 13,7 12,3 13,4 16,0 24 13 41 22 SW 1017,6 6 0,0
16.06.2018 10:00:00 14,3 12,8 12,7 16,1 21 12 31 17 SSW 1017,2 31 0,6
16.06.2018 09:00:00 12,9 11,8 12,8 16,1 14 8 24 13 WSW 1017,5 1,8 0,6
16.06.2018 08:00:00 12,9 11,3 12,3 16,2 12 7 18 10 SSW 1017,4 34 0,0
16.06.2018 07:00:00 12,4 11,0 11,8 16,3 12 7 18 10 SSW 1017,1 34 0,0
16.06.2018 06:00:00 12,0 10,7 11,0 16,4 11 6 15 8 SSW 1017,2 34 0,0
16.06.2018 05:00:00 11,4 10,5 9,9 16,5 10 5 13 7 S 1017,6 30 0,0
16.06.2018 04:00:00 11,0 10,1 9,9 16,6 10 5 13 7 S 1018,2 18 0,0
16.06.2018 03:00:00 11,0 9,7 9,5 16,7 8 4 15 8 SSW 1018,6 20 0,0
16.06.2018 02:00:00 11,3 9,6 9,9 16,8 12 6 15 8 WSW 1019,2 32 0,0
16.06.2018 01:00:00 11,3 9,0 9,5 16,9 9 5 11 6 S 1018,8 41 0,0
16.06.2018 00:00:00 12,3 8,6 10,5 16,9 9 5 9 5 SW 1019,1 57 0,0
15.06.2018 23:00:00 12,9 8,2 10,8 17,0 4 2 8 4 WNW 1019,3 54 0,0
15.06.2018 22:00:00 13,7 7,5 12,3 17,0 6 3 22 12 WNW 1019,1 60 0,0
15.06.2018 21:00:00 16,1 8,1 15,7 17,0 9 5 22 12 WNW 1019,2 48 0,0
15.06.2018 20:00:00 15,8 8,5 16,1 16,9 14 8 24 13 WNW 1019,5 50 0,0
15.06.2018 19:00:00 17,0 8,7 18,1 16,8 11 6 22 12 WNW 1019,2 54 0,0
15.06.2018 18:00:00 16,8 8,5 19,5 16,7 10 6 22 12 NNW 1019,7 55 0,0
15.06.2018 17:00:00 17,2 6,7 18,6 16,6 12 7 24 13 NNW 1020,0 53 0,0
15.06.2018 16:00:00 17,3 7,3 - 16,4 14 8 24 13 NW 1020,2 52 -
15.06.2018 15:00:00 - - - - - - - - - - - -
15.06.2018 14:00:00 17,1 7,4 18,3 16,3 10 6 21 11 NNW 1020,2 49 0,0
15.06.2018 13:00:00 16,0 7,7 17,7 16,2 12 7 24 13 NW 1020,4 47 0,0
15.06.2018 12:00:00 15,5 8,7 17,3 16,2 7 4 15 8 N 1020,1 38 0,0
15.06.2018 11:00:00 15,3 9,4 17,0 16,2 6 3 13 7 NW 1020,2 20 0,0
15.06.2018 10:00:00 14,1 10,7 15,6 16,2 5 3 11 6 NNW 1020,1 19 0,0
15.06.2018 09:00:00 13,7 11,7 13,6 16,2 5 3 9 5 - 1019,9 10 0,0
15.06.2018 08:00:00 12,6 11,8 11,9 16,3 4 2 5 3 WNW 1019,7 11 0,0
15.06.2018 07:00:00 11,7 11,1 10,5 16,4 5 3 8 4 W 1019,7 8 0,0
15.06.2018 06:00:00 11,6 11,1 11,1 16,5 4 2 8 4 W 1019,4 8 0,0
15.06.2018 05:00:00 11,2 10,7 10,7 16,6 6 3 8 4 W 1019,7 3,9 0,0
15.06.2018 04:00:00 11,0 10,5 10,0 16,7 7 4 8 4 W 1019,7 0,3 0,0
15.06.2018 03:00:00 11,0 10,2 9,4 16,8 6 3 8 4 W 1019,4 0,7 0,0
15.06.2018 02:00:00 11,1 10,0 10,0 16,9 6 3 9 5 W 1019,5 11 0,0
15.06.2018 01:00:00 11,1 9,8 9,8 17,0 6 3 8 4 W 1019,7 0,8 0,0
15.06.2018 00:00:00 11,7 9,9 9,2 17,0 4 2 8 4 W 1019,7 17 0,0
14.06.2018 23:00:00 12,3 8,6 10,2 17,0 5 3 16 9 NNW 1019,4 31 0,0
14.06.2018 22:00:00 14,1 9,3 13,3 17,0 11 6 18 10 NNW 1018,9 10 0,0
14.06.2018 21:00:00 14,7 10,9 15,3 17,0 11 6 22 12 NNW 1018,8 20 0,0
14.06.2018 20:00:00 15,0 10,4 15,3 17,0 18 10 29 16 NNW 1018,6 20 0,0
14.06.2018 19:00:00 15,8 9,9 16,6 16,9 15 8 28 15 NNW 1018,1 10 0,0
14.06.2018 18:00:00 16,0 10,3 17,7 16,9 17 9 28 15 NNW 1018,0 20 0,0
14.06.2018 17:00:00 16,8 10,4 18,4 16,8 16 9 28 15 NNW 1017,6 33 0,0
14.06.2018 16:00:00 17,3 11,8 19,1 16,8 16 9 26 14 NNW 1017,4 17 0,0
14.06.2018 15:00:00 17,0 12,9 18,1 16,7 16 9 34 18 NW 1017,2 19 0,0
14.06.2018 14:00:00 16,9 13,4 16,1 16,7 19 10 29 16 NW 1017,0 17 0,0
14.06.2018 13:00:00 15,8 14,3 15,2 16,7 15 8 37 20 WNW 1016,6 14 0,0
14.06.2018 12:00:00 16,0 15,2 - - 24 13 39 21 WNW 1016,2 5 0,2
14.06.2018 11:00:00 15,4 14,9 15,3 16,7 21 11 39 21 WSW 1015,7 2,5 0,4

tt = temperature
td = dewpoint
tt 5cm = temperature 5cm
tt -20cm = temperature -20cm
ff = wind speed
fx = gusts
dd = wind direction
ppp = reduced air pressure
vv = visibility
rr = precipitation

Next stations